• Em Portugal
  • Lista de países
  • Para 7 dias
  • Temperatura da água
  • Mapas de satélite
  • Mapa do tempo
  • Widgets de tempo
  • user-avatar
    Iniciar Sessão

    Previsão horária em Krukowek

    Hoje, 18 Agosto, Sábado

    Tempo Temperatura Precipitação Vento Pressão Humidade
    00:00 +19°C° 0 mm 1 m/s 749 mmHg 85%
    01:00 +18°C° 0 mm 1 m/s 749 mmHg 86%
    02:00 +18°C° 0 mm 1 m/s 749 mmHg 86%
    03:00 +18°C° 0 mm 1 m/s 749 mmHg 87%
    04:00 +18°C° 0 mm 1 m/s 749 mmHg 88%
    05:00 +16°C° 0 mm 1 m/s 749 mmHg 89%
    06:00 +19°C° 0 mm 1 m/s 749 mmHg 84%
    07:00 +21°C° 0 mm 1 m/s 749 mmHg 78%
    08:00 +23°C° 0 mm 1 m/s 749 mmHg 71%
    09:00 +24°C° 0,1 mm 1 m/s 749 mmHg 66%
    10:00 +26°C° 0,1 mm 1 m/s 749 mmHg 61%
    11:00 +27°C° 0,1 mm 1 m/s 749 mmHg 56%
    12:00 +27°C° 0,3 mm 1 m/s 749 mmHg 54%
    13:00 +28°C° 0,3 mm 2 m/s 749 mmHg 53%
    14:00 +28°C° 0 mm 2 m/s 749 mmHg 52%
    15:00 +27°C° 0,6 mm 2 m/s 749 mmHg 56%
    16:00 +27°C° 0,6 mm 2 m/s 749 mmHg 60%
    17:00 +26°C° 0,6 mm 2 m/s 749 mmHg 64%
    18:00 +25°C° 0,2 mm 2 m/s 749 mmHg 71%
    19:00 +23°C° 0,2 mm 2 m/s 749 mmHg 78%
    20:00 +20°C° 0,2 mm 2 m/s 749 mmHg 85%
    21:00 +19°C° 0 mm 2 m/s 749 mmHg 88%
    22:00 +18°C° 0 mm 2 m/s 750 mmHg 91%
    23:00 +17°C° 0 mm 2 m/s 750 mmHg 94%

    Amanhã, 19 Agosto, Domingo

    Tempo Temperatura Precipitação Vento Pressão Humidade
    00:00 +17°C° 0 mm 2 m/s 750 mmHg 93%
    01:00 +16°C° 0 mm 2 m/s 750 mmHg 93%
    02:00 +15°C° 0 mm 2 m/s 750 mmHg 92%
    03:00 +15°C° 0 mm 1 m/s 750 mmHg 91%
    04:00 +14°C° 0 mm 1 m/s 750 mmHg 89%
    05:00 +14°C° 0 mm 1 m/s 750 mmHg 88%
    06:00 +15°C° 0 mm 1 m/s 751 mmHg 83%
    07:00 +18°C° 0 mm 1 m/s 751 mmHg 78%
    08:00 +19°C° 0 mm 1 m/s 751 mmHg 73%
    09:00 +20°C° 0 mm 2 m/s 751 mmHg 67%
    10:00 +21°C° 0 mm 2 m/s 751 mmHg 61%
    11:00 +24°C° 0 mm 3 m/s 751 mmHg 55%
    12:00 +24°C° 0 mm 3 m/s 751 mmHg 54%
    13:00 +25°C° 0 mm 3 m/s 751 mmHg 52%
    14:00 +26°C° 0 mm 3 m/s 750 mmHg 51%
    15:00 +25°C° 0 mm 3 m/s 750 mmHg 53%
    16:00 +25°C° 0 mm 2 m/s 750 mmHg 55%
    17:00 +25°C° 0 mm 2 m/s 750 mmHg 57%
    18:00 +24°C° 0 mm 2 m/s 750 mmHg 63%
    19:00 +22°C° 0 mm 1 m/s 750 mmHg 69%
    20:00 +20°C° 0 mm 1 m/s 749 mmHg 75%
    21:00 +20°C° 0 mm 1 m/s 749 mmHg 76%
    22:00 +19°C° 0 mm 1 m/s 749 mmHg 78%
    23:00 +19°C° 0 mm 1 m/s 749 mmHg 79%

    Depois de amanhã, 20 Agosto, Segunda-feira

    Tempo Temperatura Precipitação Vento Pressão Humidade
    00:00 +18°C° 0 mm 1 m/s 749 mmHg 79%
    01:00 +17°C° 0 mm 2 m/s 749 mmHg 79%
    02:00 +17°C° 0 mm 2 m/s 749 mmHg 79%
    03:00 +17°C° 0 mm 2 m/s 749 mmHg 79%
    04:00 +16°C° 0 mm 2 m/s 748 mmHg 79%
    05:00 +16°C° 0 mm 2 m/s 748 mmHg 79%
    06:00 +18°C° 0 mm 3 m/s 748 mmHg 76%
    07:00 +19°C° 0 mm 3 m/s 747 mmHg 74%
    08:00 +21°C° 0 mm 4 m/s 747 mmHg 72%
    09:00 +22°C° 0 mm 4 m/s 747 mmHg 66%
    10:00 +25°C° 0 mm 4 m/s 747 mmHg 61%
    11:00 +27°C° 0 mm 5 m/s 746 mmHg 56%
    12:00 +27°C° 0,2 mm 5 m/s 746 mmHg 55%
    13:00 +28°C° 0,2 mm 5 m/s 746 mmHg 55%
    14:00 +28°C° 0,2 mm 5 m/s 745 mmHg 54%
    15:00 +28°C° 0,4 mm 5 m/s 745 mmHg 57%
    16:00 +27°C° 0,4 mm 4 m/s 744 mmHg 61%
    17:00 +27°C° 0,4 mm 4 m/s 744 mmHg 64%
    18:00 +25°C° 0,2 mm 4 m/s 744 mmHg 69%
    19:00 +24°C° 0,2 mm 3 m/s 744 mmHg 73%
    20:00 +21°C° 0,2 mm 3 m/s 743 mmHg 78%
    21:00 +21°C° 0 mm 3 m/s 744 mmHg 81%
    22:00 +20°C° 0 mm 3 m/s 744 mmHg 85%
    23:00 +19°C° 0 mm 3 m/s 744 mmHg 88%

    21 Agosto, Terça-feira

    Tempo Temperatura Precipitação Vento Pressão Humidade
    00:00 +18°C° 0 mm 3 m/s 744 mmHg 89%
    01:00 +17°C° 0 mm 4 m/s 744 mmHg 91%
    02:00 +17°C° 0 mm 4 m/s 744 mmHg 92%
    03:00 +15°C° 0 mm 4 m/s 745 mmHg 92%
    04:00 +14°C° 0 mm 4 m/s 745 mmHg 93%
    05:00 +14°C° 0 mm 4 m/s 745 mmHg 93%
    06:00 +14°C° 0 mm 4 m/s 746 mmHg 90%
    07:00 +15°C° 0 mm 4 m/s 746 mmHg 86%
    08:00 +17°C° 0 mm 4 m/s 747 mmHg 82%
    09:00 +18°C° 0 mm 4 m/s 747 mmHg 75%
    10:00 +19°C° 0 mm 4 m/s 748 mmHg 68%
    11:00 +20°C° 0 mm 4 m/s 748 mmHg 61%
    12:00 +21°C° 0 mm 4 m/s 748 mmHg 58%
    13:00 +21°C° 0 mm 4 m/s 749 mmHg 55%
    14:00 +22°C° 0 mm 4 m/s 749 mmHg 52%
    15:00 +22°C° 0 mm 4 m/s 749 mmHg 55%
    16:00 +21°C° 0 mm 4 m/s 749 mmHg 57%
    17:00 +21°C° 0 mm 4 m/s 749 mmHg 59%
    18:00 +19°C° 0 mm 3 m/s 750 mmHg 66%
    19:00 +18°C° 0 mm 3 m/s 750 mmHg 73%
    20:00 +16°C° 0 mm 2 m/s 750 mmHg 80%
    21:00 +15°C° 0 mm 2 m/s 751 mmHg 83%
    22:00 +14°C° 0 mm 2 m/s 751 mmHg 86%
    23:00 +13°C° 0 mm 2 m/s 751 mmHg 89%

    22 Agosto, Quarta-feira

    Tempo Temperatura Precipitação Vento Pressão Humidade
    00:00 +13°C° 0 mm 2 m/s 752 mmHg 89%
    01:00 +12°C° 0 mm 2 m/s 752 mmHg 90%
    02:00 +12°C° 0 mm 1 m/s 752 mmHg 90%
    03:00 +11°C° 0 mm 1 m/s 752 mmHg 90%
    04:00 +11°C° 0 mm 1 m/s 752 mmHg 90%
    05:00 +11°C° 0 mm 1 m/s 753 mmHg 90%
    06:00 +12°C° 0 mm 1 m/s 753 mmHg 83%
    07:00 +14°C° 0 mm 1 m/s 753 mmHg 77%
    08:00 +15°C° 0 mm 1 m/s 753 mmHg 71%
    09:00 +18°C° 0 mm 1 m/s 753 mmHg 64%
    10:00 +20°C° 0 mm 1 m/s 753 mmHg 58%
    11:00 +21°C° 0 mm 1 m/s 753 mmHg 52%
    12:00 +22°C° 0 mm 1 m/s 753 mmHg 49%
    13:00 +23°C° 0 mm 1 m/s 752 mmHg 46%
    14:00 +24°C° 0 mm 2 m/s 752 mmHg 43%
    15:00 +24°C° 0 mm 2 m/s 752 mmHg 44%
    16:00 +24°C° 0 mm 1 m/s 752 mmHg 45%
    17:00 +24°C° 0 mm 1 m/s 751 mmHg 46%
    18:00 +22°C° 0 mm 1 m/s 751 mmHg 51%
    19:00 +20°C° 0 mm 1 m/s 751 mmHg 57%
    20:00 +18°C° 0 mm 1 m/s 751 mmHg 62%
    21:00 +17°C° 0 mm 2 m/s 751 mmHg 64%
    22:00 +16°C° 0 mm 2 m/s 751 mmHg 65%
    23:00 +16°C° 0 mm 2 m/s 751 mmHg 67%

    23 Agosto, Quinta-feira

    Tempo Temperatura Precipitação Vento Pressão Humidade
    00:00 +16°C° 0 mm 3 m/s 750 mmHg 69%
    01:00 +14°C° 0 mm 3 m/s 750 mmHg 72%
    02:00 +14°C° 0 mm 3 m/s 750 mmHg 74%
    03:00 +14°C° 0 mm 3 m/s 750 mmHg 77%
    04:00 +14°C° 0 mm 3 m/s 750 mmHg 80%
    05:00 +14°C° 0 mm 3 m/s 749 mmHg 83%
    06:00 +16°C° 0 mm 3 m/s 749 mmHg 79%
    07:00 +17°C° 0 mm 3 m/s 749 mmHg 76%
    08:00 +19°C° 0 mm 4 m/s 749 mmHg 72%
    09:00 +21°C° 0 mm 4 m/s 749 mmHg 67%
    10:00 +22°C° 0 mm 4 m/s 749 mmHg 62%
    11:00 +25°C° 0 mm 4 m/s 749 mmHg 57%
    12:00 +26°C° 0 mm 3 m/s 749 mmHg 55%
    13:00 +26°C° 0 mm 3 m/s 749 mmHg 52%
    14:00 +27°C° 0 mm 3 m/s 748 mmHg 49%
    15:00 +27°C° 0 mm 3 m/s 748 mmHg 50%
    16:00 +27°C° 0 mm 3 m/s 748 mmHg 51%
    17:00 +27°C° 0 mm 2 m/s 747 mmHg 52%
    18:00 +25°C° 0 mm 2 m/s 747 mmHg 57%
    19:00 +23°C° 0 mm 2 m/s 747 mmHg 62%
    20:00 +20°C° 0 mm 2 m/s 747 mmHg 68%
    21:00 +19°C° 0 mm 3 m/s 747 mmHg 70%
    22:00 +18°C° 0 mm 3 m/s 747 mmHg 73%
    23:00 +18°C° 0 mm 3 m/s 746 mmHg 75%
    Mostrar mais